Watsonville, CA

1:56 AM PST on November 22, 2019 (GMT -0800)
Watsonville Municipal

Weather History for KWVI - October, 2019

Change the Weather History Date:

Monday, October 21, 2019

  Actual Average Record
Temperature  
Mean Temperature 67 °F 60 °F  
Max Temperature 84 °F 72 °F 88 °F (1999)
Min Temperature 49 °F 48 °F 42 °F (2007)
Degree Days  
Heating Degree Days 0    
Month to date heating degree days 82  
Since 1 July heating degree days 162  
Cooling Degree Days 2    
Month to date cooling degree days 16  
Year to date cooling degree days 240  
Growing Degree Days 16 (Base 50)    
Moisture  
Dew Point 47 °F    
Average Humidity 54    
Maximum Humidity 77    
Minimum Humidity 31    
Precipitation  
Precipitation 0.00 in - 1.15 in (1985)
Month to date precipitation 0.00  
Year to date precipitation 22.88  
Sea Level Pressure  
Sea Level Pressure 30.12 in    
Wind  
Wind Speed 3 mph (WNW)    
Max Wind Speed 8 mph    
Max Gust Speed 11 mph    
Visibility 10 miles    
Events      
T = Trace of Precipitation, MM = Missing Value Source: NWS Daily Summary

Daily Weather History Graph

Daily Weather History Graph

Search for Another Location

Airport or City:

Astronomy

Oct. 21, 2019 Rise Set
Actual Time 7:20 AM PDT 6:22 PM PDT
Civil Twilight 6:53 AM PDT 6:49 PM PDT
Nautical Twilight 6:23 AM PDT 7:19 PM PDT
Astronomical Twilight 5:53 AM PDT 7:49 PM PDT
Moon No Moon Rise 2:37 PM PDT (10/21)
Length of Visible Light 11h 55m
Length of Day
11h 02m
Waning Gibbous, 47% of the Moon is Illuminated
Oct 21
Waning Gibbous
Oct 27
New
Nov 4
First Quarter
Nov 12
Full
Nov 19
Last Quarter

Hourly Weather History & Observations

Time (PDT) Temp. Dew Point Humidity Pressure Visibility Wind Dir Wind Speed Gust Speed Precip Events Conditions
12:53 AM 54.0 °F 46.0 °F 75% 30.13 in 10.0 mi North 4.6 mph - N/A   Clear
1:53 AM 53.1 °F 46.0 °F 77% 30.12 in 10.0 mi NNW 3.5 mph - N/A   Clear
2:53 AM 51.1 °F 45.0 °F 80% 30.12 in 10.0 mi Calm Calm - N/A   Clear
3:53 AM 52.0 °F 45.0 °F 77% 30.12 in 10.0 mi Calm Calm - N/A   Clear
4:53 AM 53.1 °F 46.0 °F 77% 30.11 in 10.0 mi NW 3.5 mph - N/A   Clear
5:53 AM 51.1 °F 45.0 °F 80% 30.12 in 10.0 mi Calm Calm - N/A   Clear
6:53 AM 52.0 °F 45.0 °F 77% 30.13 in 10.0 mi Calm Calm - N/A   Clear
7:53 AM 52.0 °F 45.0 °F 77% 30.13 in 10.0 mi Calm Calm - N/A   Clear
8:53 AM 57.9 °F 46.9 °F 67% 30.15 in 10.0 mi Calm Calm - N/A   Clear
9:53 AM 64.0 °F 46.9 °F 54% 30.17 in 10.0 mi SSE 3.5 mph - N/A   Clear
10:53 AM 70.0 °F 48.0 °F 46% 30.16 in 10.0 mi ESE 3.5 mph - N/A   Clear
11:53 AM 75.9 °F 48.9 °F 38% 30.14 in 10.0 mi SE 3.5 mph - N/A   Clear
12:53 PM 78.1 °F 50.0 °F 37% 30.13 in 10.0 mi Variable 5.8 mph - N/A   Clear
1:53 PM 80.1 °F 48.9 °F 34% 30.11 in 10.0 mi SW 5.8 mph - N/A   Clear
2:53 PM 82.0 °F 48.9 °F 31% 30.09 in 10.0 mi South 5.8 mph - N/A   Clear
3:53 PM 82.9 °F 48.9 °F 31% 30.08 in 10.0 mi Variable 5.8 mph - N/A   Clear
4:53 PM 82.0 °F 48.9 °F 31% 30.08 in 10.0 mi WSW 5.8 mph - N/A   Clear
5:53 PM 78.1 °F 48.0 °F 35% 30.08 in 10.0 mi Calm Calm - N/A   Clear
6:53 PM 69.1 °F 48.9 °F 49% 30.10 in 10.0 mi Calm Calm - N/A   Clear
7:53 PM 66.0 °F 50.0 °F 56% 30.12 in 10.0 mi WNW 3.5 mph - N/A   Clear
8:53 PM 64.0 °F 48.9 °F 58% 30.14 in 10.0 mi North 5.8 mph - N/A   Clear
9:53 PM 55.9 °F 46.9 °F 72% 30.14 in 10.0 mi WNW 3.5 mph - N/A   Clear
10:53 PM 61.0 °F 46.9 °F 60% 30.16 in 10.0 mi North 5.8 mph - N/A   Clear
11:53 PM 60.1 °F 46.0 °F 60% 30.16 in 10.0 mi NNW 3.5 mph - N/A   Clear